Regional Weather Roundup
Issued by NWS

Home | Current Version | Previous Version | Text Only | Print | Product List | Glossary On
Versions: 1 2 3 4 5 6 7 8 9 10 11 12 13 14 15 16 17 18 19 20 21 22 23 24 25 26 27 28 29 30 31 32 33 34 35 36 37 38 39 40 41 42 43 44 45 46 47 48 49 50
000
ASUS42 KTBW 020116
RWRFL
FLORIDA REGIONAL WEATHER ROUNDUP
NATIONAL WEATHER SERVICE TAMPA BAY RUSKIN FL
900 PM EDT WED APR 01 2015

NOTE: "FAIR" INDICATES FEW OR NO CLOUDS BELOW 12,000 FEET WITH NO
SIGNIFICANT WEATHER AND/OR OBSTRUCTIONS TO VISIBILITY.


FLZ001>010-012>015-112-114-115-020200-
PANHANDLE FLORIDA

CITY           SKY/WX    TMP DP  RH WIND       PRES   REMARKS
PENSACOLA      CLOUDY    69  63  81 S6        30.07R
PENSACOLA NAS  CLOUDY    70  65  84 SW8       30.07R
MILTON NAS     MOCLDY    69  64  84 S7        30.08
CRESTVIEW      CLOUDY    71  61  70 S9        30.09R
DUKE FIELD     MOCLDY    70  63  79 SW8       30.07R
VALPARAISO     MOCLDY    70  63  79 SW8       30.07R
MARY ESTHER    MOCLDY    70  63  79 SW5       30.07R
TRI COUNTY     FAIR      70  61  73 SW5       30.08R
PANAMA CITY    FAIR      68  63  84 S6        30.08R
TYNDALL AFB    MOCLDY    69  67  92 S5        30.09S
APALACHICOLA   MOCLDY    73  64  73 W9        30.09R

STATION/POSITION SKY/WX   TEMP    WIND        PRES    WAVE   SWELL
                          AIR SEA DIR/SP/G            HT/PER HT/PER
                          (F)     (DEG/KT/KT) (MB)    (FT/S) (FT/S)
30.1N   87.6W              72 73  170/  8/  8 1017.8R   1/ 5   2/ 5
29.2N   88.2W              73 74  180/ 12/ 14 1018.7S   3/ 4   2/ 6
28.8N   86.0W              74 75  220/  6/  8 1019.7R   2/ 8   2/ 8
PANAMA CITY BEAC           69 69  230/  7/  8 1018.4R
CAPE SAN BLAS    NOT AVBL
TOWER C                    69     240/  9/  9 1019.3R
28.5N   84.5W              70 69  240/  4/  4 1019.9R   1/ 4   2/ 4

$$
FLZ011-016>038-118-127-128-134-139-239-020200-
NORTH FLORIDA

CITY           SKY/WX    TMP DP  RH WIND       PRES   REMARKS
MARIANNA       CLEAR     72  62  71 SW8       30.06R
TALLAHASSEE    PTCLDY    74  60  61 W8        30.07R
PERRY          CLEAR     69  65  86 S7        30.09R
CROSS CITY       N/A     69  65  86 SW3       30.10R
LAKE CITY      FAIR      72  63  73 W10       30.10R
GAINESVILLE    PTCLDY    71  63  75 W10       30.09R
MAYPORT NAS    PTCLDY    65  62  90 NE7       30.10R
JACKSONVILLE   PTCLDY    64  61  90 E7        30.10R
JAX NAS        PTCLDY    71  63  75 E8        30.10R
JAX CRAIG      CLEAR     66  62  87 E7        30.10R
JAX CECIL      CLEAR     68  63  83 CALM      30.10R
FERNANDINA BEA FAIR      68  64  88 E3        30.10R
ST AUGUSTINE   PTCLDY    67  63  87 SE6       30.11R

STATION/POSITION SKY/WX   TEMP    WIND        PRES    WAVE   SWELL
                          AIR SEA DIR/SP/G            HT/PER HT/PER
                          (F)     (DEG/KT/KT) (MB)    (FT/S) (FT/S)
SHELL POINT                75     260/ 13/ 17   N/A
KEATON BEACH               71     260/ 15/ 17 1019.0R
CEDAR KEY                  71     270/  8/ 11 1020.2R
FERNANDINA                 65 62   90/  3/  8 1018.2R
30.7N   81.3W                 63                N/A     1/ 3
MAYPORT                    65 62   70/  5/  7 1018.6R
31.4N   80.9W              64 62   80/ 12/ 14 1019.8R   2/ 3
ST AUGUSTINE               64 63  140/  2/  3 1020.1R

$$
FLZ040-043>046-052-053-057-058-063-144-020200-
INTERIOR CENTRAL FLORIDA

CITY           SKY/WX    TMP DP  RH WIND       PRES   REMARKS
OCALA          PTCLDY    70  63  78 SW6       30.12R
THE VILLAGES     N/A     70  64  83 W5        30.02R
LEESBURG       CLEAR     71  63  75 W9        30.13R
SANFORD        CLEAR     73  61  65 W10       30.10R
ORLANDO EXEC   PTCLDY    74  61  63 W12       30.11R
ORLANDO INTL   PTCLDY    75  60  59 W10       30.11R
KISSIMMEE      CLEAR     73  61  64 NW6       30.12
WINTER HAVEN   PTCLDY    73  61  65 MISG      30.13R
LAKELAND       CLEAR     72  61  68 NW7       30.13R
BARTOW         FAIR      72  59  64 NW6       30.12R
OKEECHOBEE     CLEAR     68  61  77 CALM      30.10R

$$
FLZ041-047-054-059-064-141-147-020200-
EAST CENTRAL FLORIDA

CITY           SKY/WX    TMP DP  RH WIND       PRES   REMARKS
DAYTONA BEACH  PTCLDY    74  61  63 W12       30.10R
DELAND           N/A    N/A N/A N/A W8        30.09R
NEW SMYRNA BEA PTCLDY    73  61  64 W12G18    30.09R
JFK SPACE CTR  CLEAR     74  60  62 W8        30.07R
TITUSVILLE     CLEAR     73  59  60 NW6       30.08R
CAPE CANAVERAL CLEAR     71  66  84 S6        30.08R
PATRICK AFB    CLEAR     74  66  76 S9        30.08R
MELBOURNE      PTCLDY    76  64  66 CALM      30.09R
VERO BEACH     PTCLDY    73  61  65 SE7       30.10R
FT PIERCE      CLEAR     72  62  71 SE6       30.10R
STUART         CLEAR     70  59  68 SE6       30.11R

STATION/POSITION SKY/WX   TEMP    WIND        PRES    WAVE   SWELL
                          AIR SEA DIR/SP/G            HT/PER HT/PER
                          (F)     (DEG/KT/KT) (MB)    (FT/S) (FT/S)
28.5N   80.2W              73 71  160/  8/  8 1018.4R
28.9N   78.5W              74 76  290/  8/ 10 1019.1R
TRIDENT PIER               72 72  160/  4/  7 1018.6R
28.4N   80.5W                 72                N/A     2/ 3
27.5N   80.2W                 76                N/A     2/11

$$
FLZ050-056-061-142-242-148-248-149-249-151-251-155-255-
160-260-020200-
WEST CENTRAL FLORIDA

CITY           SKY/WX    TMP DP  RH WIND       PRES   REMARKS
CRYSTAL RIVER  FAIR      68  63  83 CALM      30.13R
INVERNESS      FAIR     N/A N/A N/A CALM      30.13R
BROOKSVILLE    CLEAR     67  61  81 W5        30.13R
ZEPHYRHILLS    FAIR      70  59  68 CALM      30.13R
CLEARWATER     CLEAR     69  62  78 W7        30.13R
TAMPA INTL     PTCLDY    71  59  65 NW7       30.14R
TAMPA EXEC     PTCLDY    72  61  68 NW5       30.14R
PLANT CITY     PTCLDY    73  63  68 NW7       30.15R
MACDILL AFB    CLEAR     71  62  71 NW5       30.13R
PETER O KNIGHT CLEAR     73  63  68 W3        30.14R
ST PETERSBURG  CLEAR     72  63  73 NW5       30.12R
SARASOTA       PTCLDY    69  64  84 NW7       30.12R
VENICE         FAIR      70  64  83 NW7       30.14R

STATION/POSITION SKY/WX   TEMP    WIND        PRES    WAVE   SWELL
                          AIR SEA DIR/SP/G            HT/PER HT/PER
                          (F)     (DEG/KT/KT) (MB)    (FT/S) (FT/S)
CEDAR KEY                  71     270/  8/ 11 1020.2R
28.5N   84.5W              70 69  240/  4/  4 1019.9R   1/ 4   2/ 4
27.3N   84.2W                 73                N/A     1/ 4
CLEARWATER BEACH NOT AVBL
MIDDLE TAMPA BAY           72     290/ 10/ 11 1019.8R
VENICE                     72 74  300/  8/  9 1020.0R

$$
FLZ066-069-070-075>078-162-262-165-265-020200-
SOUTHWEST FLORIDA AND KEYS

CITY           SKY/WX    TMP DP  RH WIND       PRES   REMARKS
PUNTA GORDA    MOCLDY    71  62  73 NW9       30.13R
FT MYERS       PTCLDY    72  61  68 NW7       30.11R
SOUTHWEST INTL PTCLDY    72  58  61 W3        30.11R
NAPLES         CLEAR     73  63  70 W5        30.11R
MARCO ISLAND   CLEAR     72  61  68 W5        30.11S
IMMOKALEE      CLEAR    N/A N/A N/A CALM      30.11R
MARATHON       PTCLDY    75  62  64 SE7       30.11R
KEY WEST NAS   PTCLDY    73  60  63 E9        30.11S
KEY WEST INTL  CLEAR     75  60  59 SE10      30.11S

STATION/POSITION SKY/WX   TEMP    WIND        PRES    WAVE   SWELL
                          AIR SEA DIR/SP/G            HT/PER HT/PER
                          (F)     (DEG/KT/KT) (MB)    (FT/S) (FT/S)
VENICE                     72 74  300/  8/  9 1020.0R
NAPLES                     74 77  310/  8/ 10 1018.9R
26.0N   85.6W              72 74  110/ 10/ 10 1019.2R   2/ 6   2/ 6
DRY TORTUGAS               73      90/  6/  7 1019.1S
NW FL BAY                  76     180/  6/  8 1019.7
SAND KEY                   76     110/ 11/ 12 1019.4S
SOMBRERO KEY               75     130/ 11/ 12 1020.4R
LONG KEY                   75 77  140/  7/  8 1020.5R
MOLASSES REEF              75 76  150/  7/  7 1019.7R

$$
FLZ067-068-071>074-168-172>174-020200-
SOUTHEAST FLORIDA

CITY           SKY/WX    TMP DP  RH WIND       PRES   REMARKS
W PALM BEACH   PTCLDY    75  61  61 S7        30.10R
FT LAUDER-EXEC CLEAR     75  61  61 SE6       30.11R
FT LAUDERDALE  CLEAR     75  61  61 SE7       30.10R
POMPANO BEACH  CLEAR     75  60  59 SE6       30.11R
PEMBROKE PINES CLEAR     74  61  63 S5        30.12R
OPA LOCKA      PTCLDY    74  60  61 S6        30.12R
MIAMI          CLEAR     75  60  59 S5        30.12R
WEST KENDALL   CLEAR     74  62  66 SE5       30.12R
HOMESTEAD      CLEAR     70  63  78 S2        30.12R

STATION/POSITION SKY/WX   TEMP    WIND        PRES    WAVE   SWELL
                          AIR SEA DIR/SP/G            HT/PER HT/PER
                          (F)     (DEG/KT/KT) (MB)    (FT/S) (FT/S)
PORT EVERGLADES            76     150/  6/ 10 1019.4R
VIRGINIA KEY               76 77  140/  5/  7 1019.0R
LAKE WORTH                 76 78  150/  7/  8 1018.9R



USA.gov is the U.S. government's official web portal to all federal, state and local government web resources and services.